Location: Coaja
(46.0000°N, 22.6500°E)
Time: 07:20:55
(UTC+00:00)

Daily predictions for brighter satellites

Satellite Brightness Start Highest point End
(mag) Time Altitude Azimuth Time Altitude Azimuth Time Altitude Azimuth
CZ-4B R/B 3.3 15:36:54 10° SSE 15:42:20 66° ENE 15:47:55 10° N
FengYun 1-2 T 4.4 15:37:56 10° SE 15:43:19 55° ENE 15:48:46 10° N
NOAA 6 4.3 15:39:01 10° S 15:44:09 76° WSW 15:49:19 10° NNW
Meteor 2-5 Rocket 4.2 15:42:06 10° SSE 15:47:12 38° E 15:52:16 10° NNE
Cosmos 1603 4.0 15:44:22 10° NNW 15:49:54 48° ENE 15:55:24 10° SE
Cosmos 836 Rocket 4.5 15:45:08 10° NNW 15:50:22 77° ENE 15:55:34 10° SSE
ATLAS 3B R/B 2.8 15:44:10 10° NW 15:51:08 71° NE 15:58:21 10° SE
Cosmos 972 Rocket 4.3 15:46:11 10° NNW 15:51:17 71° WSW 15:56:08 10° S
Cosmos 2297 Rocket 3.8 15:46:32 10° WSW 15:51:32 31° NW 15:56:34 10° N
Cosmos 1400 Rocket 2.9 15:47:28 10° N 15:51:37 87° ENE 15:55:42 10° S
COSMOS 2455 4.3 15:49:32 10° SE 15:53:13 17° ESE 15:56:54 10° ENE
CZ-2D R/B 4.4 15:50:12 10° ESE 15:53:19 24° ENE 15:56:26 10° NNE
Cosmos 1544 Rocket 4.4 15:49:09 10° NNW 15:53:25 56° W 15:57:43 10° S
Cosmos 1025 Rocket 3.4 15:49:53 10° SSW 15:54:10 70° W 15:58:32 10° N
SL-14 R/B 3.8 15:51:17 10° SSE 15:54:49 36° E 15:58:24 10° NNE
Envisat 4.2 15:49:55 10° S 15:54:49 49° W 15:59:46 10° NNW
Cosmos 1486 Rocket 4.1 15:54:50 10° SSW 16:00:06 87° WNW 16:05:22 10° NNE
Cosmos 2082 4.5 15:55:26 10° SW 16:01:01 54° WNW 16:06:38 10° NNE
KORONAS-FOTON 4.3 15:58:13 10° SSW 16:02:05 65° W 16:06:01 10° N
Cosmos 968 Rocket 3.6 15:58:34 10° SSW 16:03:40 76° WNW 16:08:48 10° NNE
Cosmos 1606 Rocket 4.1 16:02:42 10° N 16:06:47 37° ENE 16:10:52 10° SE
YAOGAN 1 3.8 16:03:54 10° ESE 16:07:06 21° ENE 16:10:19 10° NNE
CZ-2C R/B 3.6 16:03:53 10° SE 16:08:41 39° ENE 16:13:46 10° N
H-2A R/B 2.2 16:05:19 10° NNE 16:09:50 85° WNW 16:14:14 10° SSW
H-2A R/B 3.4 16:07:47 10° S 16:11:38 50° W 16:15:38 10° NNW
Cosmos 1939 Rocket 2.9 16:10:11 10° SSE 16:14:15 61° ENE 16:18:19 10° N
Cosmos 1626 2.0 16:10:44 10° S 16:14:25 84° E 16:18:08 10° N
Cosmos 1953 4.3 16:11:48 10° NNW 16:15:21 32° W 16:18:53 10° SSW
ATLAS 5 CENTAUR R/B 1.6 16:11:56 10° SSW 16:15:48 55° ESE 16:19:32 13° NE
MOS 1 Rocket 3.8 16:14:57 10° NNE 16:18:53 33° E 16:22:45 10° SSE
CSL-04 DEB 4.4 16:15:07 10° NNE 16:19:22 68° ESE 16:23:28 10° S
SKYMED 2 3.9 16:15:11 10° NNE 16:19:22 45° E 16:23:32 10° S
CZ-4 R/B 2.2 16:16:42 10° SE 16:20:17 29° ENE 16:23:50 10° N
Meteor 2-10 Rocket 4.2 16:18:04 10° N 16:23:11 35° ENE 16:28:05 10° SE
Feng Yun 1-1 Rocket 4.1 16:18:56 10° SSE 16:24:17 68° ENE 16:29:46 10° N
USA-17 4.4 16:20:30 10° SW 16:24:18 80° NW 16:26:43 16° NE
Cosmos 1503 Rocket 4.1 16:22:03 10° SSW 16:27:24 88° WNW 16:32:50 10° NNE
SMAP 4.5 16:24:19 10° S 16:28:43 42° W 16:33:08 10° NNW
Cosmos 2263 Rocket 2.2 16:23:26 10° SSW 16:29:07 83° ESE 16:34:50 10° NNE
H-2A R/B 2.5 16:25:55 10° SE 16:30:21 34° ENE 16:34:55 10° N
CREW DRAGON DEMO-1 DEB 4.2 16:28:11 10° WNW 16:30:41 25° N 16:31:41 21° NNE
Cosmos 2058 Rocket 3.7 16:27:10 10° N 16:31:16 34° ENE 16:35:22 10° SE
CZ-3B R/B 2.7 16:29:20 10° NNW 16:31:27 26° NNE 16:32:50 21° ENE
Cosmos 2228 2.9 16:27:49 10° N 16:32:05 75° E 16:36:21 10° SSE
SJ 16-02 3.2 16:30:23 10° SE 16:31:42 14° ESE 16:31:42 14° ESE
Meteor 1-24 Rocket 3.5 16:28:26 10° S 16:33:47 72° E 16:39:05 10° NNE
Cosmos 1315 Rocket 2.7 16:30:52 10° N 16:34:51 88° E 16:38:50 10° S
NOSS 3-4 (A) 4.5 16:30:28 10° WSW 16:35:59 39° NW 16:41:57 10° NNE
NOSS 3-4 (C) 4.5 16:30:34 10° WSW 16:36:06 39° NW 16:42:04 10° NNE
Okean 1-7 Rocket 4.4 16:32:11 10° SSE 16:36:07 30° E 16:38:41 18° NE
Abrixas rocket 3.6 16:34:43 10° W 16:37:03 27° SSW 16:39:23 10° SSE
SAR-Lupe-4 4.2 16:38:34 26° ENE 16:39:50 34° E 16:43:07 10° SSE
Cosmos 1300 3.0 16:40:09 10° NNW 16:43:58 70° W 16:47:45 10° S
USA 267 4.0 16:42:30 21° E 16:45:53 33° SE 16:51:37 10° S
Cosmos 1943 3.4 16:40:23 10° NNW 16:46:04 76° WSW 16:51:42 10° SSE
GENESIS II 4.2 16:45:34 10° SW 16:49:35 88° NW 16:51:45 26° NE
Cosmos 1689 Rocket 3.0 16:50:37 30° SE 16:50:37 30° SE 16:52:28 10° S
SAR-Lupe-1 4.3 16:50:18 34° NE 16:51:21 46° E 16:54:47 10° S
Cosmos 2279 Rocket 4.0 16:45:20 10° N 16:51:39 87° W 16:57:55 10° S
ARGOS 3.5 16:47:11 10° SE 16:52:09 40° ENE 16:57:08 10° N
CSL-04 Debris 4.4 16:48:14 10° SE 16:53:17 43° ENE 16:58:20 10° N
ATLAS 2AS CENTAUR R/B 3.8 16:45:55 10° WSW 16:53:32 48° NW 17:00:36 12° NNE
SJ-11-01 4.4 16:49:45 10° SE 16:54:16 50° ENE 16:58:48 10° N
Helios 1A Rocket 3.1 16:50:19 10° SE 16:54:16 47° ENE 16:58:16 10° N
Cosmos 1726 Rocket 3.5 16:50:43 10° N 16:55:06 88° W 16:59:29 10° S
ISS -1.2 16:55:05 10° SSE 16:55:25 11° SSE 16:55:25 11° SSE
Lacrosse 5 2.5 16:52:24 10° NW 16:57:06 37° NNE 16:58:27 31° ENE
Cosmos 773 Rocket 4.0 16:53:09 10° NNW 16:58:21 83° WSW 17:03:29 10° SSE
CZ-2C R/B 3.5 17:01:39 29° ESE 17:01:39 29° ESE 17:06:05 10° SSE
Okean-O 2.5 16:57:44 10° SSE 17:02:08 74° ENE 17:06:35 10° N
COSMO-SKYMED 1 3.2 17:03:13 10° N 17:07:30 57° WNW 17:11:44 10° SSW
Okean O Rocket 4.4 17:07:37 10° SW 17:10:58 21° W 17:14:20 10° NW
Cosmos 158 Rocket 4.4 17:06:27 10° N 17:11:25 39° ENE 17:11:32 39° ENE
RESURS DK-1 4.2 17:09:33 10° WSW 17:13:10 28° NW 17:16:12 13° N
ERS-2 2.4 17:12:03 24° N 17:14:08 66° WNW 17:17:43 10° SSW
CZ-4B R/B 3.4 17:13:11 10° N 17:16:11 28° WNW 17:19:07 10° SW
X-37B 3.4 17:15:31 10° S 17:15:38 10° S 17:15:38 10° S
USA 234 3.6 17:19:06 36° ENE 17:21:15 48° NNE 17:27:29 10° NW
Cosmos 1538 Rocket 3.9 17:16:51 10° NNW 17:22:04 90° W 17:27:14 10° SSE
CZ-4C R/B 3.8 17:20:16 10° W 17:24:48 27° NNW 17:28:31 16° NNE
Cosmos 1844 Rocket 2.8 17:19:27 10° S 17:24:55 52° ESE 17:25:29 50° E
Meteor 2-1 Rocket 4.0 17:20:04 10° N 17:25:42 74° ENE 17:31:12 10° SSE
Cosmos 489 Rocket 4.4 17:21:12 10° NNW 17:27:34 65° ENE 17:31:01 28° SE
PSLV R/B 4.4 17:26:29 22° N 17:29:05 62° WNW 17:33:14 10° SSW
Cosmos 1092 Rocket 4.0 17:24:21 10° SSE 17:30:22 55° E 17:32:28 38° NE
Cosmos 1777 Rocket 4.3 17:25:21 10° SSW 17:30:34 68° WNW 17:33:47 24° NNE
Iridium 4 Rocket 4.0 17:31:05 10° N 17:43:53 - SSE 17:35:40 49° NE
COSMOS 2455 2.8 17:32:18 10° SSW 17:38:20 87° WNW 17:40:26 44° NNE
YAOGAN 1 3.7 17:38:48 10° S 17:42:56 44° W 17:47:05 10° NNW
CSL-04 Rocket 3.8 17:42:58 10° S 17:48:20 74° WSW 17:53:48 10° NNW
Nadezhda 4 Rocket 4.3 17:44:50 10° SSW 17:51:05 67° W 17:57:18 10° N
CZ-4 R/B 3.6 17:51:46 10° SSW 17:55:16 26° W 17:58:46 10° NW
ATLAS 5 CENTAUR R/B 3.4 17:57:20 10° W 18:00:46 24° NNW 18:01:05 24° NNW
NOSS 3-1 (C) 4.1 18:02:13 10° NW 18:09:09 57° NE 18:09:09 57° NE
H-2A R/B 3.6 18:05:25 10° SSW 18:09:48 32° W 18:14:18 10° NNW
SJ 16-02 3.0 18:06:33 10° SSW 18:08:46 28° SW 18:08:46 28° SW
Cosmos 2263 Rocket 4.4 18:09:36 10° W 18:13:46 21° NW 18:17:04 13° N
USA 229 4.4 18:17:41 10° NW 18:23:08 45° N 18:23:08 45° N
USA 229 DEB 4.4 18:17:41 10° NW 18:23:09 45° N 18:23:09 45° N
USA 267 3.3 18:29:51 75° W 18:29:51 75° W 18:35:51 10° WSW
Lacrosse 5 3.7 18:35:21 10° NW 18:37:40 27° WNW 18:37:40 27° WNW
CZ-2C R/B 4.0 18:43:09 36° WSW 18:43:09 36° WSW 18:46:57 10° SW
USA 234 4.2 19:06:27 42° WNW 19:06:27 42° WNW 19:10:39 10° NW
Cosmos 2344 4.4 19:17:58 10° NW 19:26:41 74° W 19:26:41 74° W
